Regional Weather Roundup
Issued by NWS

Home | Current Version | Previous Version | Graphics & Text | Print | Product List | Glossary On
Versions: 1 2 3 4 5 6 7 8 9 10 11 12 13 14 15 16 17 18 19 20 21 22 23 24 25 26 27
000
ASUS45 KCYS 182110
RWRWY

WYOMING REGIONAL WEATHER ROUNDUP
NATIONAL WEATHER SERVICE CHEYENNE WY
200 PM MST SAT NOV 18 2017

NOTE:  "FAIR" INDICATES FEW OR NO CLOUDS BELOW 12,000 FEET
WITH NO SIGNIFICANT WEATHER AND/OR OBSTRUCTIONS TO VISIBILITY.

WYZ001-182200-
YELLOWSTONE NATIONAL PARK

CITY           SKY/WX    TMP DP  RH WIND       PRES   REMARKS
LK YELLOWSTONE   N/A     20  15  81 VRB3      30.28
W YELLOWSTONE  NOT AVBL

$$
WYZ002>013-054>058-071-098>099-182200-
NORTHERN WYOMING

CITY           SKY/WX    TMP DP  RH WIND       PRES   REMARKS
JACKSON        FAIR      30  19  63 S16       30.33R WCI  19
CODY           FAIR      42  14  32 SW9       30.15F
GREYBULL       FAIR      42  12  29 S8        30.18S
WORLAND        FAIR      42  12  29 SE6       30.17F
SHERIDAN       FAIR      43  16  33 VRB3      30.13F
BUFFALO        FAIR      33  12  41 S7        30.13F WCI  27
GILLETTE       FAIR      41  13  31 NW12      30.13S
HULETT         FAIR      39  16  38 W12G17    30.12S WCI  32
NEWCASTLE      FAIR      41  12  30 NW20G26   30.14F

$$
WYZ014>020-022>026-101>103-182200-
CENTRAL WYOMING

CITY           SKY/WX    TMP DP  RH WIND       PRES   REMARKS
BIG PINEY      FAIR      26  11  52 CALM      30.31F
PINEDALE       FAIR      30  14  51 NW10      30.29F WCI  21
DUBOIS         FAIR      30  10  43 NW22G33   30.18S WCI  17
LANDER         FAIR      43   4  19 E5        30.14F
RIVERTON       FAIR      37  17  44 E8        30.16F WCI  31
CASPER         FAIR      34  22  61 SW18G29   30.18F WCI  23
DOUGLAS        FAIR      36  24  62 W14       30.16F WCI  27

$$
WYZ021-027>030-104>119-182200-
SOUTHERN WYOMING

CITY           SKY/WX    TMP DP  RH WIND       PRES   REMARKS
EVANSTON       FAIR      23  18  81 SW9       30.35F WCI  13
FORT BRIDGER   FAIR      28  19  70 W7        30.38S WCI  20
ROCK SPRINGS   FAIR      25  15  66 W20       30.32F WCI  11
DIXON          FAIR      30  17  58 S7        30.38F WCI  23
RAWLINS        LGT SNOW  27  18  69 SW23G33   30.27F WCI  12
SARATOGA       FAIR      28  14  54 CALM      30.28F
LARAMIE        FAIR      31  13  47 W18G25    30.17S WCI  19
CHEYENNE       FAIR      38  13  35 NW13G21   30.17F WCI  30
TORRINGTON     FAIR      43  16  33 W12       30.17F
PINE BLUFFS    FAIR      41  12  30 MISG      30.19F

$$




USA.gov is the U.S. government's official web portal to all federal, state and local government web resources and services.